"Period start","avg(HW err(1)/warn(2) (#))","avg(Visibility (m))","avg(Weather code (#))","avg(Precip intensity (mm/h))","min(HW err(1)/warn(2) (#))","max(HW err(1)/warn(2) (#))","std(HW err(1)/warn(2) (#))","med(HW err(1)/warn(2) (#))","min(Visibility (m))","max(Visibility (m))","std(Visibility (m))","med(Visibility (m))","min(Weather code (#))","max(Weather code (#))","std(Weather code (#))","med(Weather code (#))","min(Precip intensity (mm/h))","max(Precip intensity (mm/h))","std(Precip intensity (mm/h))","med(Precip intensity (mm/h))"
2017-06-10 00:00:00,2,44116,0,0.00,2,2,0,2,29494,50000,6735,47334,0,0,0,0,0.00,0.00,0.00,0.00
2017-06-10 00:10:00,2,43066,0,0.00,0,2,1,2,30223,50000,6501,43268,0,0,0,0,0.00,0.00,0.00,0.00
2017-06-10 00:20:00,2,41171,0,0.00,0,2,1,2,31943,50000,6976,42315,0,0,0,0,0.00,0.00,0.00,0.00
2017-06-10 00:30:00,0,37060,0,0.00,0,0,0,0,24021,48675,7808,36764,0,0,0,0,0.00,0.00,0.00,0.00
2017-06-10 00:40:00,1,45858,0,0.00,0,2,1,1,38444,50000,4877,49208,0,0,0,0,0.00,0.00,0.00,0.00
2017-06-10 00:50:00,2,40383,0,0.00,2,2,0,2,30952,50000,6414,38408,0,0,0,0,0.00,0.00,0.00,0.00
2017-06-10 01:00:00,2,39974,0,0.00,2,2,0,2,30719,49666,6668,40286,0,0,0,0,0.00,0.00,0.00,0.00
2017-06-10 01:10:00,2,38534,0,0.00,2,2,0,2,19842,50000,10516,40655,0,0,0,0,0.00,0.00,0.00,0.00
2017-06-10 01:20:00,2,35547,0,0.00,2,2,0,2,22426,50000,9796,37581,0,0,0,0,0.00,0.00,0.00,0.00
2017-06-10 01:30:00,2,39039,0,0.00,2,2,0,2,19153,50000,8843,39976,0,0,0,0,0.00,0.00,0.00,0.00
2017-06-10 01:40:00,2,46827,0,0.00,2,2,0,2,39111,50000,3795,48873,0,0,0,0,0.00,0.00,0.00,0.00
2017-06-10 01:50:00,2,41098,0,0.00,2,2,0,2,32332,50000,6790,39950,0,0,0,0,0.00,0.00,0.00,0.00
2017-06-10 02:00:00,2,41252,0,0.00,2,2,0,2,18843,50000,9869,45030,0,0,0,0,0.00,0.00,0.00,0.00
2017-06-10 02:10:00,2,39328,0,0.00,2,2,0,2,30550,50000,6227,40420,0,0,0,0,0.00,0.00,0.00,0.00
2017-06-10 02:20:00,2,36184,0,0.00,2,2,0,2,15042,48032,9860,36520,0,0,0,0,0.00,0.00,0.00,0.00
2017-06-10 02:30:00,2,35571,0,0.00,2,2,0,2,21884,50000,9631,31702,0,0,0,0,0.00,0.00,0.00,0.00
2017-06-10 02:40:00,2,36023,0,0.00,2,2,0,2,25408,50000,7726,36626,0,0,0,0,0.00,0.00,0.00,0.00
2017-06-10 02:50:00,2,42046,0,0.00,2,2,0,2,28090,50000,6821,42469,0,0,0,0,0.00,0.00,0.00,0.00
2017-06-10 03:00:00,2,41984,0,0.00,2,2,0,2,29628,49736,6295,42320,0,0,0,0,0.00,0.00,0.00,0.00
2017-06-10 03:10:00,2,40822,0,0.00,2,2,0,2,22663,50000,10518,47014,0,0,0,0,0.00,0.00,0.00,0.00
2017-06-10 03:20:00,2,39784,0,0.00,2,2,0,2,24388,50000,7110,41430,0,0,0,0,0.00,0.00,0.00,0.00
2017-06-10 03:30:00,2,42423,0,0.00,2,2,0,2,30864,50000,6414,44374,0,0,0,0,0.00,0.00,0.00,0.00
2017-06-10 03:40:00,2,42231,0,0.00,2,2,0,2,28734,50000,7949,45077,0,0,0,0,0.00,0.00,0.00,0.00
2017-06-10 03:50:00,2,38290,0,0.00,2,2,0,2,21045,50000,11653,42152,0,0,0,0,0.00,0.00,0.00,0.00
2017-06-10 04:00:00,2,42070,0,0.00,2,2,0,2,30185,50000,7374,43938,0,0,0,0,0.00,0.00,0.00,0.00
2017-06-10 04:10:00,2,44412,0,0.00,2,2,0,2,36441,50000,5088,44210,0,0,0,0,0.00,0.00,0.00,0.00
2017-06-10 04:20:00,1,45593,0,0.00,0,2,1,2,32045,50000,5810,47834,0,0,0,0,0.00,0.00,0.00,0.00
2017-06-10 04:30:00,0,48012,0,0.00,0,0,0,0,37489,50000,4139,50000,0,0,0,0,0.00,0.00,0.00,0.00
2017-06-10 04:40:00,0,43559,0,0.00,0,0,0,0,35113,50000,5506,44458,0,0,0,0,0.00,0.00,0.00,0.00
2017-06-10 04:50:00,0,47804,0,0.00,0,0,0,0,40348,50000,2955,48806,0,0,0,0,0.00,0.00,0.00,0.00
2017-06-10 05:00:00,0,46672,0,0.00,0,2,1,0,40324,50000,3809,48532,0,0,0,0,0.00,0.00,0.00,0.00
2017-06-10 05:10:00,2,48298,0,0.00,2,2,0,2,43154,50000,2206,49656,0,0,0,0,0.00,0.00,0.00,0.00
2017-06-10 05:20:00,2,46231,0,0.00,2,2,0,2,39897,50000,3531,46689,0,0,0,0,0.00,0.00,0.00,0.00
2017-06-10 05:30:00,1,48440,0,0.00,0,2,1,2,41260,50000,2989,50000,0,0,0,0,0.00,0.00,0.00,0.00
2017-06-10 05:40:00,0,45333,0,0.00,0,0,0,0,41619,49030,2592,46166,0,0,0,0,0.00,0.00,0.00,0.00
2017-06-10 05:50:00,0,46996,0,0.00,0,0,0,0,38960,50000,3803,48751,0,0,0,0,0.00,0.00,0.00,0.00
2017-06-10 06:00:00,0,40139,0,0.00,0,0,0,0,32637,49137,4803,40115,0,0,0,0,0.00,0.00,0.00,0.00
2017-06-10 06:10:00,0,48435,0,0.00,0,0,0,0,35231,50000,4409,50000,0,0,0,0,0.00,0.00,0.00,0.00
2017-06-10 06:20:00,0,48440,0,0.00,0,0,0,0,43758,50000,2054,49333,0,0,0,0,0.00,0.00,0.00,0.00
2017-06-10 06:30:00,0,46933,0,0.00,0,0,0,0,35694,50000,4462,49062,0,0,0,0,0.00,0.00,0.00,0.00
2017-06-10 06:40:00,0,47848,0,0.00,0,0,0,0,40486,50000,3434,50000,0,0,0,0,0.00,0.00,0.00,0.00
2017-06-10 06:50:00,0,48294,0,0.00,0,0,0,0,39852,50000,3024,49751,0,0,0,0,0.00,0.00,0.00,0.00
2017-06-10 07:00:00,0,48738,0,0.00,0,0,0,0,45331,50000,1688,50000,0,0,0,0,0.00,0.00,0.00,0.00
2017-06-10 07:10:00,1,48781,0,0.00,0,2,1,0,42791,50000,2488,50000,0,0,0,0,0.00,0.00,0.00,0.00
2017-06-10 07:20:00,2,49811,0,0.00,2,2,0,2,48605,50000,428,50000,0,0,0,0,0.00,0.00,0.00,0.00
2017-06-10 07:30:00,2,49870,0,0.00,2,2,0,2,48702,50000,389,50000,0,0,0,0,0.00,0.00,0.00,0.00
2017-06-10 07:40:00,2,49637,0,0.00,2,2,0,2,46369,50000,1089,50000,0,0,0,0,0.00,0.00,0.00,0.00
2017-06-10 07:50:00,2,50000,0,0.00,2,2,0,2,50000,50000,0,50000,0,0,0,0,0.00,0.00,0.00,0.00
2017-06-10 08:00:00,2,50000,0,0.00,2,2,0,2,50000,50000,0,50000,0,0,0,0,0.00,0.00,0.00,0.00
2017-06-10 08:10:00,1,48294,0,0.00,0,2,1,1,42698,50000,2325,49608,0,0,0,0,0.00,0.00,0.00,0.00
2017-06-10 08:20:00,0,50000,0,0.00,0,0,0,0,50000,50000,0,50000,0,0,0,0,0.00,0.00,0.00,0.00
2017-06-10 08:30:00,0,50000,0,0.00,0,0,0,0,50000,50000,0,50000,0,0,0,0,0.00,0.00,0.00,0.00
2017-06-10 08:40:00,0,49640,0,0.00,0,0,0,0,46401,50000,1080,50000,0,0,0,0,0.00,0.00,0.00,0.00
2017-06-10 08:50:00,0,50000,0,0.00,0,0,0,0,50000,50000,0,50000,0,0,0,0,0.00,0.00,0.00,0.00
2017-06-10 09:00:00,0,50000,0,0.00,0,0,0,0,50000,50000,0,50000,0,0,0,0,0.00,0.00,0.00,0.00
2017-06-10 09:10:00,0,49945,0,0.00,0,0,0,0,49446,50000,166,50000,0,0,0,0,0.00,0.00,0.00,0.00
2017-06-10 09:20:00,0,49852,0,0.00,0,0,0,0,49187,50000,286,50000,0,0,0,0,0.00,0.00,0.00,0.00
2017-06-10 09:30:00,0,50000,0,0.00,0,0,0,0,50000,50000,0,50000,0,0,0,0,0.00,0.00,0.00,0.00
2017-06-10 09:40:00,0,49478,0,0.00,0,0,0,0,45561,50000,1326,50000,0,0,0,0,0.00,0.00,0.00,0.00
2017-06-10 09:50:00,0,49961,0,0.00,0,0,0,0,49608,50000,118,50000,0,0,0,0,0.00,0.00,0.00,0.00
2017-06-10 10:00:00,0,49842,0,0.00,0,0,0,0,48421,50000,474,50000,0,0,0,0,0.00,0.00,0.00,0.00
2017-06-10 10:10:00,0,49344,0,0.00,0,0,0,0,46719,50000,1181,50000,0,0,0,0,0.00,0.00,0.00,0.00
2017-06-10 10:20:00,0,49377,0,0.00,0,0,0,0,46602,50000,1252,50000,0,0,0,0,0.00,0.00,0.00,0.00
2017-06-10 10:30:00,0,49536,0,0.00,0,0,0,0,45357,50000,1393,50000,0,0,0,0,0.00,0.00,0.00,0.00
2017-06-10 10:40:00,0,48337,0,0.00,0,0,0,0,44228,50000,2275,50000,0,0,0,0,0.00,0.00,0.00,0.00
2017-06-10 10:50:00,0,48980,0,0.00,0,0,0,0,42512,50000,2274,50000,0,0,0,0,0.00,0.00,0.00,0.00
2017-06-10 11:00:00,0,46930,0,0.00,0,0,0,0,40502,50000,3900,50000,0,0,0,0,0.00,0.00,0.00,0.00
2017-06-10 11:10:00,0,46833,0,0.00,0,0,0,0,38764,50000,4370,50000,0,0,0,0,0.00,0.00,0.00,0.00
2017-06-10 11:20:00,0,44758,0,0.00,0,0,0,0,39504,50000,3744,44215,0,0,0,0,0.00,0.00,0.00,0.00
2017-06-10 11:30:00,2,46484,0,0.00,0,2,1,2,38144,50000,3493,46982,0,0,0,0,0.00,0.00,0.00,0.00
2017-06-10 11:40:00,2,43458,0,0.00,2,2,0,2,35052,50000,5489,44893,0,0,0,0,0.00,0.00,0.00,0.00
2017-06-10 11:50:00,1,46729,0,0.00,0,2,1,0,34288,50000,4967,50000,0,0,0,0,0.00,0.00,0.00,0.00
2017-06-10 12:00:00,0,46404,0,0.00,0,0,0,0,35844,50000,5587,50000,0,0,0,0,0.00,0.00,0.00,0.00
2017-06-10 12:10:00,0,47743,0,0.00,0,0,0,0,40665,50000,3163,49740,0,0,0,0,0.00,0.00,0.00,0.00
2017-06-10 12:20:00,1,48431,0,0.00,0,2,1,2,44395,50000,1905,49572,0,0,0,0,0.00,0.00,0.00,0.00
2017-06-10 12:30:00,0,49790,0,0.00,0,0,0,0,47901,50000,630,50000,0,0,0,0,0.00,0.00,0.00,0.00
2017-06-10 12:40:00,0,49817,0,0.00,0,0,0,0,48598,50000,426,50000,0,0,0,0,0.00,0.00,0.00,0.00
2017-06-10 12:50:00,0,49536,0,0.00,0,0,0,0,47659,50000,929,50000,0,0,0,0,0.00,0.00,0.00,0.00
2017-06-10 13:00:00,0,50000,0,0.00,0,0,0,0,50000,50000,0,50000,0,0,0,0,0.00,0.00,0.00,0.00
2017-06-10 13:10:00,0,50000,0,0.00,0,0,0,0,50000,50000,0,50000,0,0,0,0,0.00,0.00,0.00,0.00
2017-06-10 13:20:00,0,50000,0,0.00,0,0,0,0,50000,50000,0,50000,0,0,0,0,0.00,0.00,0.00,0.00
2017-06-10 13:30:00,0,49874,0,0.00,0,0,0,0,49112,50000,277,50000,0,0,0,0,0.00,0.00,0.00,0.00
2017-06-10 13:40:00,0,49594,0,0.00,0,2,1,0,46950,50000,931,50000,0,0,0,0,0.00,0.00,0.00,0.00
2017-06-10 13:50:00,2,48981,0,0.00,2,2,0,2,46170,50000,1506,50000,0,0,0,0,0.00,0.00,0.00,0.00
2017-06-10 14:00:00,2,49137,0,0.00,2,2,0,2,45349,50000,1732,50000,0,0,0,0,0.00,0.00,0.00,0.00
2017-06-10 14:10:00,2,49732,0,0.00,2,2,0,2,47587,50000,719,50000,0,0,0,0,0.00,0.00,0.00,0.00
2017-06-10 14:20:00,2,49564,0,0.00,2,2,0,2,45641,50000,1308,50000,0,0,0,0,0.00,0.00,0.00,0.00
2017-06-10 14:30:00,2,50000,0,0.00,2,2,0,2,50000,50000,0,50000,0,0,0,0,0.00,0.00,0.00,0.00
2017-06-10 14:40:00,2,50000,0,0.00,2,2,0,2,50000,50000,0,50000,0,0,0,0,0.00,0.00,0.00,0.00
2017-06-10 14:50:00,2,50000,0,0.00,2,2,0,2,50000,50000,0,50000,0,0,0,0,0.00,0.00,0.00,0.00
2017-06-10 15:00:00,2,50000,0,0.00,2,2,0,2,50000,50000,0,50000,0,0,0,0,0.00,0.00,0.00,0.00
2017-06-10 15:10:00,2,50000,0,0.00,2,2,0,2,50000,50000,0,50000,0,0,0,0,0.00,0.00,0.00,0.00
2017-06-10 15:20:00,2,50000,0,0.00,2,2,0,2,50000,50000,0,50000,0,0,0,0,0.00,0.00,0.00,0.00
2017-06-10 15:30:00,2,50000,0,0.00,2,2,0,2,50000,50000,0,50000,0,0,0,0,0.00,0.00,0.00,0.00
2017-06-10 15:40:00,1,50000,0,0.00,0,2,1,2,50000,50000,0,50000,0,0,0,0,0.00,0.00,0.00,0.00
2017-06-10 15:50:00,0,50000,0,0.00,0,0,0,0,50000,50000,0,50000,0,0,0,0,0.00,0.00,0.00,0.00
2017-06-10 16:00:00,0,49992,0,0.00,0,0,0,0,49915,50000,26,50000,0,0,0,0,0.00,0.00,0.00,0.00
2017-06-10 16:10:00,0,49703,0,0.00,0,0,0,0,47454,50000,760,50000,0,0,0,0,0.00,0.00,0.00,0.00
2017-06-10 16:20:00,0,49867,0,0.00,0,0,0,0,48667,50000,400,50000,0,0,0,0,0.00,0.00,0.00,0.00
2017-06-10 16:30:00,0,49780,0,0.00,0,0,0,0,47798,50000,661,50000,0,0,0,0,0.00,0.00,0.00,0.00
2017-06-10 16:40:00,0,49991,0,0.00,0,0,0,0,49908,50000,28,50000,0,0,0,0,0.00,0.00,0.00,0.00
2017-06-10 16:50:00,0,50000,0,0.00,0,0,0,0,50000,50000,0,50000,0,0,0,0,0.00,0.00,0.00,0.00
2017-06-10 17:00:00,0,50000,0,0.00,0,0,0,0,50000,50000,0,50000,0,0,0,0,0.00,0.00,0.00,0.00
2017-06-10 17:10:00,0,50000,0,0.00,0,0,0,0,50000,50000,0,50000,0,0,0,0,0.00,0.00,0.00,0.00
2017-06-10 17:20:00,0,50000,0,0.00,0,0,0,0,50000,50000,0,50000,0,0,0,0,0.00,0.00,0.00,0.00
2017-06-10 17:30:00,0,50000,0,0.00,0,0,0,0,50000,50000,0,50000,0,0,0,0,0.00,0.00,0.00,0.00
2017-06-10 17:40:00,0,50000,0,0.00,0,0,0,0,50000,50000,0,50000,0,0,0,0,0.00,0.00,0.00,0.00
2017-06-10 17:50:00,0,50000,0,0.00,0,0,0,0,50000,50000,0,50000,0,0,0,0,0.00,0.00,0.00,0.00
2017-06-10 18:00:00,0,49964,0,0.00,0,0,0,0,49639,50000,108,50000,0,0,0,0,0.00,0.00,0.00,0.00
2017-06-10 18:10:00,0,50000,0,0.00,0,0,0,0,50000,50000,0,50000,0,0,0,0,0.00,0.00,0.00,0.00
2017-06-10 18:20:00,0,49774,0,0.00,0,0,0,0,48568,50000,447,50000,0,0,0,0,0.00,0.00,0.00,0.00
2017-06-10 18:30:00,0,49278,0,0.00,0,0,0,0,45197,50000,1539,50000,0,0,0,0,0.00,0.00,0.00,0.00
2017-06-10 18:40:00,0,50000,0,0.00,0,0,0,0,50000,50000,0,50000,0,0,0,0,0.00,0.00,0.00,0.00
2017-06-10 18:50:00,0,49717,0,0.00,0,0,0,0,47993,50000,598,50000,0,0,0,0,0.00,0.00,0.00,0.00
2017-06-10 19:00:00,0,50000,0,0.00,0,0,0,0,50000,50000,0,50000,0,0,0,0,0.00,0.00,0.00,0.00
2017-06-10 19:10:00,0,50000,0,0.00,0,0,0,0,50000,50000,0,50000,0,0,0,0,0.00,0.00,0.00,0.00
2017-06-10 19:20:00,0,49546,0,0.00,0,0,0,0,46090,50000,1167,50000,0,0,0,0,0.00,0.00,0.00,0.00
2017-06-10 19:30:00,0,49994,0,0.00,0,0,0,0,49944,50000,17,50000,0,0,0,0,0.00,0.00,0.00,0.00
2017-06-10 19:40:00,0,49667,0,0.00,0,0,0,0,47767,50000,713,50000,0,0,0,0,0.00,0.00,0.00,0.00
2017-06-10 19:50:00,0,50000,0,0.00,0,0,0,0,50000,50000,0,50000,0,0,0,0,0.00,0.00,0.00,0.00
2017-06-10 20:00:00,0,47026,0,0.00,0,0,0,0,35847,50000,5285,50000,0,0,0,0,0.00,0.00,0.00,0.00
2017-06-10 20:10:00,0,49226,0,0.00,0,0,0,0,46346,50000,1280,50000,0,0,0,0,0.00,0.00,0.00,0.00
2017-06-10 20:20:00,0,47301,0,0.00,0,0,0,0,40708,50000,3023,48252,0,0,0,0,0.00,0.00,0.00,0.00
2017-06-10 20:30:00,0,49368,0,0.00,0,0,0,0,45746,50000,1279,50000,0,0,0,0,0.00,0.00,0.00,0.00
2017-06-10 20:40:00,0,48783,0,0.00,0,0,0,0,43564,50000,1913,49674,0,0,0,0,0.00,0.00,0.00,0.00
2017-06-10 20:50:00,0,48602,0,0.00,0,0,0,0,40686,50000,2983,50000,0,0,0,0,0.00,0.00,0.00,0.00
2017-06-10 21:00:00,0,47462,0,0.00,0,0,0,0,40740,50000,3193,48587,0,0,0,0,0.00,0.00,0.00,0.00
2017-06-10 21:10:00,0,49212,0,0.00,0,0,0,0,44125,50000,1737,50000,0,0,0,0,0.00,0.00,0.00,0.00
2017-06-10 21:20:00,0,49188,0,0.00,0,0,0,0,45707,50000,1321,50000,0,0,0,0,0.00,0.00,0.00,0.00
2017-06-10 21:30:00,0,48938,0,0.00,0,0,0,0,44758,50000,1540,49464,0,0,0,0,0.00,0.00,0.00,0.00
2017-06-10 21:40:00,0,44134,0,0.00,0,0,0,0,35816,50000,4545,44958,0,0,0,0,0.00,0.00,0.00,0.00
2017-06-10 21:50:00,0,44154,0,0.00,0,0,0,0,36639,50000,4399,45440,0,0,0,0,0.00,0.00,0.00,0.00
2017-06-10 22:00:00,0,42286,0,0.00,0,0,0,0,28244,50000,8222,46726,0,0,0,0,0.00,0.00,0.00,0.00
2017-06-10 22:10:00,0,38707,0,0.00,0,0,0,0,28494,50000,6503,37157,0,0,0,0,0.00,0.00,0.00,0.00
2017-06-10 22:20:00,0,43216,0,0.00,0,0,0,0,29127,50000,7523,45904,0,0,0,0,0.00,0.00,0.00,0.00
2017-06-10 22:30:00,0,41281,0,0.00,0,0,0,0,33151,50000,5792,39970,0,0,0,0,0.00,0.00,0.00,0.00
2017-06-10 22:40:00,0,32464,0,0.00,0,0,0,0,27100,39386,4455,31528,0,0,0,0,0.00,0.00,0.00,0.00
2017-06-10 22:50:00,0,38073,0,0.00,0,0,0,0,23381,50000,8790,36223,0,0,0,0,0.00,0.00,0.00,0.00
2017-06-10 23:00:00,0,41296,0,0.00,0,0,0,0,28259,50000,6776,42520,0,0,0,0,0.00,0.00,0.00,0.00
2017-06-10 23:10:00,0,44568,0,0.00,0,0,0,0,32625,50000,5919,46428,0,0,0,0,0.00,0.00,0.00,0.00
2017-06-10 23:20:00,0,43232,0,0.00,0,0,0,0,26253,50000,9221,49120,0,0,0,0,0.00,0.00,0.00,0.00
2017-06-10 23:30:00,0,33476,0,0.00,0,0,0,0,21328,47239,7675,31445,0,0,0,0,0.00,0.00,0.00,0.00
2017-06-10 23:40:00,0,42907,0,0.00,0,0,0,0,28609,50000,6533,45284,0,0,0,0,0.00,0.00,0.00,0.00
2017-06-10 23:50:00,0,42659,0,0.00,0,0,0,0,31296,47920,5682,45106,0,0,0,0,0.00,0.00,0.00,0.00
